Track HINODE (SOLAR B) now! 10-day predictions HINODE (SOLAR B) is classified as:
1 29479U 06041A 24261.92522364 .00002390 00000-0 43531-3 0 9993 2 29479 98.0881 275.9769 0018884 144.0253 216.2226 14.66875632961375